SCP
0 0 0 0 0 0 0 0 0 0 0 0 0 0 0 0 0 0 0 0 0 0 0 0 0 0 0 0 0 0 0 0 0 0 0 0 0 0 0 0 0 0 0
0 0 0 0 0 0 0 0 0 0 0 0 0 0 0 0 0 0 0 0 0 0 0 0 0 0 0 0 0 0 0 0 0 0 0 0 0 0 0 0 0 0 0
0 0 0 0 0 0 0 0 0 0 0 0 0 0 0 0 0 0 0 0 0 0 0 0 0 0 0 0 0 0 0 0 0 0 0 0 0 0 0 0 0 0 0
0 0 0 0 0 0 0 0 0 0 0 0 0 0 0 0 0 0 0 0 0 0 0 0 0 0 0 0 0 0 0 0 0 0 0 0 0 0 0 0 0 0 0
0 0 0 0 0 0 0 0 0 0 0 0 0 0 0 0 0 0 0 0 0 0 0 0 0 0 0 0 0 0 0 0 0 0 0 0 0 0 0 0 0 0 0
0 0 0 0 0 0 0 0 0 0 0 0 0 0 0 0 0 0 0 0 0 0 0 0 0 0 0 0 0 0 0 0 0 0 0 0 0 0 0 0 0 0 0
0 0 0 0 0 0 0 0 0 0 0 0 0 0 0 0 0 0 0 0 0 0 0 0 0 0 0 0 0 0 0 0 0 0 0 0 0 0 0 0 0 0 0
0 0 0 0 0 0 0 0 0 0 0 0 0 0 0 0 0 0 0 0 0 0 0 0 0 0 0 0 0 0 0 0 0 0 0 0 0 0 0 0 0 0 0
0 0 0 0 0 0 0 0 0 0 0 0 0 0 0 0 0 0 0 0 0 0 0 0 0 0 0 0 0 0 0 0 0 0 0 0 0 0 0 0 0 0 0
0 0 0 0 0 0 0 0 0 0 0 0 0 0 0 0 0 0 0 0 0 0 0 0 0 0 0 0 0 0 0 0 0 0 0 0 0 0 0 0 0 0 0
0 0 0 0 0 0 0 0 0 0 0 0 0 0 0 0 0 0 0 0 0 0 0 0 0 0 0 0 0 0 0 0 0 0 0 0 0 0 0 0 0 0 0
0 0 0 0 0 0 0 0 0 0 0 0 0 0 0 0 0 0 0 0 0 0 0 0 0 0 0 0 0 0 0 0 0 0 0 0 0 0 0 0 0 0 0
0 0 0 0 0 0 0 0 0 0 0 0 0 0 0 0 0 0 0 0 0 0 0 0 0 0 0 0 0 0 0 0 0 0 0 0 0 0 0 0 0 0 0
0 0 0 0 0 0 0 0 0 0 0 0 0 0 0 0 0 0 0 0 0 0 0 0 0 0 0 0 0 0 0 0 0 0 0 0 0 0 0 0 0 0 0
0 0 0 0 0 0 0 0 0 0 0 0 0 0 0 0 0 0 0 0 0 0 0 0 0 0 0 0 0 0 0 0 0 0 0 0 0 0 0 0 0 0 0
0 0 0 0 0 0 0 0 0 0 0 0 0 0 0 0 0 0 0 0 0 0 0 0 0 0 0 0 0 0 0 0 0 0 0 0 0 0 0 0 0 0 0
0 0 0 0 0 0 0 0 0 0 0 0 0 0 0 0 0 0 0 0 0 0 0 0 0 0 0 0 0 0 0 0 0 0 0 0 0 0 0 0 0 0 0
0 0 0 0 0 0 0 0 0 0 0 0 0 0 0 0 0 0 0 0 0 0 0 0 0 0 0 0 0 0 0 0 0 0 0 0 0 0 0 0 0 0 0
0 0 0 0 0 0 0 0 0 0 0 0 0 0 0 0 0 0 0 0 0 0 0 0 0 0 0 0 0 0 0 0 0 0 0 0 0 0 0 0 0 0 0
0 0 0 0 0 0 0 0 0 0 0 0 0 0 0 0 0 0 0 0 0 0 0 0 0 0 0 0 0 0 0 0 0 0 0 0 0 0 0 0 0 0 0
0 0 0 0 0 0 0 0 0 0 0 0 0 0 0 0 0 0 0 0 0 0 0 0 0 0 0 0 0 0 0 0 0 0 0 0 0 0 0 0 0 0 0
0 0 0 0 0 0 0 0 0 0 0 0 0 0 0 0 0 0 0 0 0 0 0 0 0 0 0 0 0 0 0 0 0 0 0 0 0 0 0 0 0 0 0
0 0 0 0 0 0 0 0 0 0 0 0 0 0 0 0 0 0 0 0 0 0 0 0 0 0 0 0 0 0 0 0 0 0 0 0 0 0 0 0 0 0 0
0 0 0 0 0 0 0 0 0 0 0 0 0 0 0 0 0 0 0 0 0 0 0 0 0 0 0 0 0 0 0 0 0 0 0 0 0 0 0 0 0 0 0
0 0 0 0 0 0 0 0 0 0 0 0 0 0 0 0 0 0 0 0 0 0 0 0 0 0 0 0 0 0 0 0 0 0 0 0 0 0 0 0 0 0 0
0 0 0 0 0 0 0 0 0 0 0 0 0 0 0 0 0 0 0 0 0 0 0 0 0 0 0 0 0 0 0 0 0 0 0 0 0 0 0 0 0 0 0
Wind_Speed
2 2 2 2 2 1 1 1 1 2 2 2 2 3 3 3 3 3 3 6 6 6 6 6 7 7 7 7 7 7 7 7 7 6 6 6 6 6 6 6 6 6 6
2 2 2 2 1 1 1 1 1 1 1 1 2 2 2 2 2 2 3 4 6 6 5 5 6 6 6 6 6 6 6 6 6 6 5 5 5 5 5 4 4 5 5
2 2 1 1 1 1 1 1 1 1 1 1 2 2 2 2 2 2 2 2 3 5 5 4 5 6 5 5 5 5 5 5 5 5 5 5 5 4 4 4 4 3 4
2 1 1 1 1 0 1 1 1 1 1 1 1 1 1 1 2 2 1 2 2 2 4 5 5 5 4 4 3 4 4 4 4 4 3 4 3 3 3 3 3 2 2
1 1 1 1 1 0 1 1 1 1 1 1 1 1 1 1 1 1 2 2 2 2 2 4 5 5 5 4 3 2 3 3 3 3 2 2 3 2 2 2 3 2 2
1 1 1 1 0 0 1 1 1 1 1 1 1 1 1 1 1 1 1 2 2 2 2 2 2 3 4 4 3 2 1 2 2 2 2 1 1 1 1 1 1 2 2
0 0 1 1 0 0 1 1 2 2 1 1 2 1 1 1 1 1 1 1 1 1 1 1 1 1 1 3 3 3 2 1 1 1 0 0 0 1 1 1 1 1 1
0 1 1 1 1 1 1 1 2 1 1 1 2 2 2 2 2 1 0 0 1 1 1 1 1 0 0 0 2 3 3 2 1 0 0 1 2 3 2 2 2 2 2
1 0 1 1 1 1 2 2 2 3 2 2 2 2 2 2 1 2 2 1 1 1 1 1 1 0 0 0 0 1 2 2 2 2 2 3 3 3 3 3 3 3 3
0 1 1 1 1 2 2 2 3 3 3 3 2 1 2 1 2 1 2 2 2 2 2 1 2 2 1 1 0 1 2 2 3 3 3 3 3 4 4 4 3 3 4
1 1 1 1 1 2 2 3 3 3 3 3 2 2 1 1 2 3 3 2 3 3 3 3 3 2 2 2 1 1 2 3 4 4 5 4 4 4 5 5 5 5 5
1 1 1 2 2 2 2 2 3 4 4 4 3 2 2 2 3 3 3 3 3 2 3 3 3 3 3 3 2 2 3 4 4 5 5 5 5 5 6 6 6 6 6
1 2 2 2 2 2 3 3 3 4 5 5 4 3 3 3 2 3 3 3 3 2 3 3 4 3 3 3 3 3 4 5 5 6 7 6 6 6 6 6 7 7 7
2 3 3 3 3 3 3 3 3 4 4 4 4 4 3 3 2 3 3 3 3 3 4 4 3 4 3 3 3 5 5 5 6 7 7 7 6 7 7 7 7 7 7
2 3 3 3 3 3 3 4 4 4 4 4 4 4 4 3 3 3 3 4 4 4 5 4 3 4 3 3 4 5 6 6 7 7 7 7 7 7 7 7 7 7 7
3 3 3 3 4 4 4 4 4 4 4 4 4 4 4 3 3 3 4 4 4 5 5 3 4 3 4 4 5 6 6 7 8 8 8 8 8 9 8 8 8 7 7
3 3 3 4 4 4 4 4 5 5 6 6 5 5 6 5 4 4 4 4 4 5 7 5 4 4 5 5 5 5 5 5 5 8 9 9 9 9 9 9 8 8 8
4 4 4 4 4 4 4 5 6 6 6 7 6 6 7 5 6 5 5 6 5 6 6 8 5 4 6 6 6 6 5 5 5 7 9 10 9 9 10 10 9 9 9
4 4 4 4 5 4 5 5 6 6 7 7 7 7 7 7 7 6 6 6 5 5 6 7 6 4 5 4 5 6 6 5 6 6 8 10 10 10 11 11 10 10 9
4 4 4 4 5 5 5 5 5 6 6 7 7 7 8 8 8 8 7 7 6 6 6 7 6 5 5 5 5 5 5 5 5 5 7 8 9 11 11 11 10 10 10
4 4 4 4 4 4 4 5 6 6 7 7 7 8 8 9 10 9 7 7 7 7 6 7 7 5 5 4 6 5 6 5 6 5 5 5 6 6 7 9 9 9 10
4 4 4 5 5 4 6 7 7 6 7 7 7 8 8 9 11 13 14 13 11 9 9 8 7 8 8 7 6 5 5 5 6 4 5 6 5 6 6 6 8 10 11
4 4 5 5 6 6 8 9 9 7 7 7 8 7 6 6 9 9 11 13 13 14 14 10 10 10 9 7 7 8 7 7 7 4 5 7 6 7 6 6 10 11 11
4 4 5 5 6 6 8 9 9 8 7 8 8 8 7 7 7 7 7 8 9 10 11 11 10 10 9 8 8 8 8 8 7 5 5 7 6 6 6 6 9 11 12
5 4 5 5 6 6 7 8 9 6 6 7 7 7 7 7 8 9 8 8 8 8 9 11 12 12 12 12 10 6 6 6 7 6 5 6 6 6 6 6 6 10 11
5 4 5 5 6 6 7 8 8 5 5 5 5 6 8 8 9 9 8 8 8 8 7 7 8 9 10 10 11 10 8 8 6 6 5 5 5 4 4 4 4 5 6
Wind_Direction
94 88 81 72 60 69 77 82 92 90 86 68 85 105 109 104 101 100 89 65 68 82 95 100 111 112 108 104 100 99 96 94 93 92 90 87 83 82 80 75 73 72 70
99 97 89 73 54 59 63 98 101 98 88 73 83 100 106 108 99 103 96 82 65 66 80 96 108 112 108 104 102 100 97 94 94 91 90 87 84 83 79 78 74 69 65
104 107 94 82 54 49 88 102 107 101 92 88 81 95 95 95 102 100 96 91 87 70 71 84 94 101 104 106 106 106 102 96 95 92 86 83 81 79 78 74 71 66 58
88 108 111 97 68 73 112 120 141 128 121 122 91 89 107 92 97 101 96 90 88 89 79 69 78 82 87 92 100 109 112 105 97 94 87 80 79 75 72 66 65 63 55
76 83 87 82 117 123 119 131 163 154 145 131 108 82 90 105 111 117 110 87 76 74 79 73 67 65 67 70 76 99 122 122 115 100 88 83 79 71 69 61 57 58 52
82 79 89 80 94 148 146 165 153 129 145 152 121 75 81 131 134 125 127 108 87 79 76 86 89 70 59 53 49 59 105 132 123 114 89 83 84 73 55 42 51 58 49
116 103 88 119 126 188 184 171 156 148 129 161 148 129 118 136 139 141 136 134 115 102 94 86 77 74 84 57 37 26 30 69 112 128 187 279 290 268 256 291 309 355 17
190 231 164 187 196 207 185 182 175 172 148 213 205 182 194 190 178 192 195 156 161 148 128 107 98 72 145 157 55 31 13 3 342 325 329 313 286 269 263 266 276 283 296
184 240 244 223 214 209 209 210 206 201 191 208 247 238 214 213 170 173 201 210 208 208 196 202 192 192 201 207 185 47 360 334 318 307 298 284 287 286 285 276 274 278 285
223 260 242 236 242 236 224 223 223 222 215 209 207 287 305 308 227 201 193 207 224 232 227 223 213 211 217 216 264 12 336 303 288 289 293 291 288 287 283 283 288 294 291
231 253 253 232 230 246 246 237 228 224 225 228 213 211 217 246 259 244 229 211 219 230 236 231 230 225 225 226 232 298 300 286 277 280 283 285 290 295 294 289 284 285 288
247 247 249 243 235 237 247 249 240 230 229 231 226 224 217 214 220 239 241 239 242 228 234 234 231 231 231 230 239 286 277 273 277 282 279 281 286 290 291 289 288 289 290
254 253 247 243 241 241 245 248 243 240 230 226 221 224 229 234 234 245 240 242 258 261 236 231 229 231 229 233 236 265 263 269 273 277 277 279 283 285 286 286 285 291 293
254 258 248 247 248 242 238 237 239 240 236 228 225 225 226 225 224 233 233 233 250 254 238 231 222 229 230 241 255 258 255 261 265 269 272 275 282 283 283 283 284 285 290
257 252 249 246 248 242 237 235 236 233 232 232 228 223 225 225 224 229 229 228 237 249 248 233 224 220 236 249 254 252 257 258 264 266 267 269 272 275 274 274 277 281 286
254 249 248 248 249 246 237 232 236 233 229 231 231 229 230 228 225 227 227 232 238 249 255 252 243 237 238 255 254 259 262 263 258 259 261 264 265 266 266 267 269 272 277
260 252 251 251 249 249 244 238 238 236 231 231 229 230 233 234 235 230 228 228 233 239 251 262 257 250 243 249 252 258 258 255 254 255 258 260 262 261 261 261 263 266 268
272 262 257 253 252 251 249 245 244 240 237 235 233 232 234 233 235 237 234 233 235 239 248 259 259 250 248 247 252 255 258 256 256 255 258 258 259 261 260 258 259 262 264
282 274 261 255 255 253 252 253 251 247 245 242 238 237 239 237 239 238 239 241 242 243 247 257 263 261 256 250 254 257 257 257 257 254 254 254 256 256 257 255 256 258 261
283 277 269 264 261 257 251 253 255 253 252 250 247 243 242 240 241 242 241 241 242 244 244 250 258 258 252 248 247 249 253 250 254 254 252 256 257 254 252 252 253 255 257
286 281 275 268 263 256 254 254 253 253 253 253 252 248 246 246 248 246 245 243 241 242 245 249 255 258 251 244 242 246 253 257 256 249 252 249 252 250 244 244 247 250 254
282 279 275 269 263 260 264 261 262 258 255 253 255 254 251 247 246 248 249 250 248 246 246 248 254 255 255 253 251 244 250 253 256 229 246 254 250 252 251 248 249 252 253
281 276 274 272 267 266 267 262 260 261 259 258 256 256 255 255 252 251 252 252 249 248 248 251 253 254 258 254 252 246 241 249 256 252 254 259 252 257 253 251 251 251 252
278 276 276 277 277 278 277 268 263 259 259 259 258 256 256 258 254 255 257 256 255 251 248 248 252 257 258 258 250 252 253 256 264 251 239 258 254 258 262 254 244 243 248
279 277 276 277 278 282 284 278 270 263 259 260 261 260 258 259 258 258 258 259 263 264 260 258 259 261 261 260 256 250 247 244 254 251 235 250 258 265 264 256 244 242 247
276 278 276 277 278 280 285 281 275 267 265 266 266 266 263 264 263 257 254 254 258 264 266 264 262 263 261 256 248 240 239 240 249 253 229 234 249 256 266 250 243 242 245